Location: Makakahi
(40.6833°S, 175.6000°E)
Time: 01:02:59
(UTC+00:00)

DMSP B5D2-8 - Pass Details

Date: 21 January 2026
Orbit: 830 x 841 km, 98.8° (Epoch: 10 February)

Event Time Altitude Azimuth Distance (km) Brightness Sun altitude
Rises 08:16:42 0° 180° (S) 3,422 8.4 -5.8°
Reaches altitude 10° 08:19:33 10° 194° (SSW) 2,482 7.9 -6.3°
Maximum altitude 08:23:41 22° 243° (WSW) 1,756 7.6 -6.9°
Drops below altitude 10° 08:27:49 10° 292° (WNW) 2,465 7.6 -7.6°
Sets 08:30:38 0° 307° (NW) 3,393 8.1 -8.0°
